EW9135 Weather Reports


time (UTC)temp
F
wind
direction
speed
knots
gust
knots
rain 1hr
in
rain 24hr
in
rain mn
in
humidity
%
barometer
mb
20260831151628 61 196 0.0 0.0 0.00 0.01 0.01 32 1019.4
20260831151622 61 269 0.0 0.0 0.00 0.01 0.01 32 1019.1
20260831150616 61 278 0.0 0.0 0.00 0.01 0.01 33 1019.1
20260831150110 61 280 0.0 0.0 0.00 0.01 0.01 33 1019.4
20260831145606 61 293 0.0 0.0 0.00 0.01 0.01 33 1019.1
20260831145601 61 238 0.0 0.0 0.00 0.01 0.01 33 1019.1
20260831144554 61 155 0.0 0.9 0.00 0.01 0.01 34 1019.1
20260831144048 61 229 0.0 0.9 0.00 0.01 0.01 33 1019.1
20260831143542 61 286 0.0 0.9 0.00 0.01 0.01 33 1018.7
20260831143038 61 207 0.0 0.9 0.00 0.01 0.01 35 1019.1
20260831142532 61 210 0.0 0.9 0.00 0.01 0.01 35 1018.7
20260831142026 61 310 0.0 0.0 0.00 0.01 0.01 35 1018.7
20260831141520 61 314 0.0 0.9 0.00 0.01 0.01 35 1018.7
20260831141015 61 225 0.0 0.9 0.00 0.01 0.01 35 1018.7
20260831140510 61 189 0.0 0.0 0.00 0.01 0.01 35 1018.7
20260831140505 61 273 0.0 0.0 0.00 0.01 0.01 35 1018.4
20260831135459 61 285 0.0 0.9 0.00 0.01 0.01 35 1018.4
20260831134953 61 204 0.0 0.9 0.00 0.01 0.01 34 1018.4
20260831134448 61 205 0.0 0.0 0.00 0.01 0.01 34 1018.4
20260831133942 61 250 0.0 0.0 0.00 0.01 0.01 33 1018.0
20260831133436 61 251 0.0 0.0 0.00 0.01 0.01 33 1018.4
20260831132931 61 241 0.0 0.0 0.00 0.01 0.01 33 1018.0
20260831132425 61 203 0.0 0.0 0.00 0.01 0.01 34 1018.0
20260831131920 61 234 0.0 0.0 0.00 0.01 0.01 34 1018.0
20260831131414 61 222 0.0 0.0 0.00 0.01 0.01 34 1018.0
20260831130908 61 248 0.0 0.0 0.00 0.01 0.01 33 1018.0
20260831130406 61 245 0.0 0.9 0.00 0.01 0.01 33 1018.0
20260831130359 61 289 0.0 0.9 0.00 0.01 0.01 33 1018.0
20260831125352 61 175 0.0 0.0 0.00 0.01 0.01 33 1017.7
20260831124846 61 197 0.0 0.0 0.00 0.01 0.01 33 1018.0
20260831124841 61 198 0.0 0.0 0.00 0.01 0.01 33 1018.0
20260831123836 61 233 0.0 0.0 0.00 0.01 0.01 33 1017.7
20260831123330 61 255 0.0 0.0 0.00 0.01 0.01 33 1018.0
20260831122920 60 196 0.0 0.9 0.00 0.01 0.01 33 1018.0
20260831122824 61 218 0.0 0.0 0.00 0.01 0.01 33 1017.7
20260831122816 60 242 0.0 0.9 0.00 0.01 0.01 33 1017.7
20260831121308 59 164 0.0 0.0 0.00 0.01 0.01 33 1018.0
20260831120802 59 181 0.0 0.0 0.00 0.01 0.01 33 1017.7
20260831120258 58 210 0.0 0.0 0.00 0.01 0.01 33 1017.7
20260831120252 58 276 0.0 0.0 0.00 0.01 0.01 39 1017.7
20260831115247 58 324 0.0 0.0 0.00 0.01 0.01 41 1017.4
20260831114740 58 291 0.0 0.0 0.00 0.01 0.01 41 1017.7
20260831114234 58 214 0.0 0.0 0.00 0.01 0.01 41 1017.7
20260831113729 58 210 0.0 0.0 0.00 0.01 0.01 41 1017.7
20260831113223 58 210 0.0 0.0 0.00 0.01 0.01 41 1017.7
20260831112718 58 239 0.0 0.0 0.00 0.01 0.01 41 1017.7
20260831112213 58 189 0.0 0.0 0.00 0.01 0.01 41 1017.7
20260831111707 58 189 0.0 0.0 0.00 0.01 0.01 41 1017.4
20260831111201 58 222 0.0 0.0 0.00 0.01 0.01 41 1017.4
20260831111156 59 222 0.0 0.0 0.00 0.01 0.01 41 1017.4
20260831110151 59 227 0.0 0.0 0.00 0.01 0.01 40 1017.7
20260831105645 59 215 0.0 0.0 0.00 0.01 0.01 40 1017.4
20260831105139 60 215 0.0 0.0 0.00 0.01 0.01 40 1017.4
20260831104633 60 227 0.0 0.0 0.00 0.01 0.01 39 1017.4
20260831104128 60 227 0.0 0.0 0.00 0.01 0.01 38 1017.4
20260831103623 60 227 0.0 0.0 0.00 0.01 0.01 39 1017.4
20260831103117 60 206 0.0 0.0 0.00 0.01 0.01 39 1017.4
20260831102612 61 241 0.0 0.0 0.00 0.01 0.01 39 1017.4
20260831102109 61 241 0.0 0.0 0.00 0.01 0.01 38 1017.4
20260831102104 61 202 0.0 0.0 0.00 0.01 0.01 38 1017.4
20260831101055 61 264 0.0 0.0 0.00 0.01 0.01 37 1017.4
20260831100550 61 16 0.0 0.0 0.00 0.01 0.01 37 1017.4
20260831100044 61 216 0.0 0.0 0.00 0.01 0.01 37 1017.4
20260831095539 61 185 0.0 0.0 0.00 0.01 0.01 37 1017.4
20260831095033 62 245 0.0 0.0 0.00 0.01 0.01 36 1017.4
20260831094527 62 234 0.0 0.0 0.00 0.01 0.01 36 1017.4
20260831094022 62 236 0.0 0.0 0.00 0.01 0.01 36 1017.4
20260831093517 62 287 0.0 0.0 0.00 0.01 0.01 36 1017.0
20260831093011 63 258 0.0 0.0 0.00 0.01 0.01 36 1017.4
20260831092505 63 243 0.0 0.0 0.00 0.01 0.01 35 1017.4
20260831092000 64 208 0.0 0.0 0.00 0.01 0.01 35 1017.4
20260831091454 65 290 0.0 0.0 0.00 0.01 0.01 33 1017.4
20260831090949 65 3 0.0 0.0 0.00 0.01 0.01 33 1017.4
20260831090445 66 243 0.0 0.0 0.00 0.01 0.01 32 1017.4
20260831090440 66 312 0.0 0.0 0.01 0.01 0.01 32 1017.4
20260831085433 66 257 0.0 0.0 0.01 0.01 0.01 29 1017.4
20260831084928 67 225 0.0 0.0 0.01 0.01 0.01 28 1017.4
20260831084423 67 213 0.0 0.0 0.01 0.01 0.01 26 1017.4
20260831084418 67 196 0.0 0.0 0.01 0.01 0.01 26 1017.4
20260831083411 68 227 0.0 0.0 0.01 0.01 0.01 26 1017.4
20260831082905 68 215 0.0 0.9 0.01 0.01 0.01 26 1017.4
20260831082359 68 270 0.0 0.9 0.01 0.01 0.01 26 1017.4
20260831081854 69 256 0.0 0.0 0.01 0.01 0.01 26 1017.4
20260831081849 69 216 0.0 0.0 0.01 0.01 0.01 28 1017.4
20260831080843 69 281 0.0 0.0 0.01 0.01 0.01 27 1017.4
20260831080337 69 267 0.0 0.0 0.01 0.01 0.01 27 1017.7
20260831075831 69 197 0.0 0.0 0.00 0.00 0.00 27 1017.4
20260831075326 70 232 0.0 0.0 0.00 0.00 0.00 27 1017.4
20260831074820 70 245 0.0 0.0 0.00 0.00 0.00 26 1017.4
20260831074314 70 237 0.0 0.0 0.00 0.00 0.00 26 1017.4
20260831073809 70 214 0.0 0.0 0.00 0.00 0.00 24 1017.4
20260831073759 70 207 0.0 1.7 0.00 0.00 0.00 23 1017.4
20260831073403 70 180 0.0 1.7 0.00 0.00 0.00 24 1017.4
20260831072254 70 264 0.0 0.0 0.00 0.00 0.00 22 1017.4
20260831072248 71 176 0.0 0.0 0.00 0.00 0.00 22 1017.4
20260831071247 71 228 0.0 0.9 0.00 0.00 0.00 22 1017.4
20260831070735 70 250 0.0 0.9 0.00 0.00 0.00 21 1017.4
20260831070230 70 237 0.0 0.0 0.00 0.00 0.00 21 1017.4
20260831065724 70 156 0.0 0.0 0.00 0.00 0.00 21 1017.4
20260831065219 69 241 0.0 0.0 0.00 0.00 0.00 21 1017.4
20260831064713 69 231 0.0 0.0 0.00 0.00 0.00 21 1017.4
20260831064704 68 222 0.0 0.0 0.00 0.00 0.00 22 1017.4
20260831064309 68 249 0.0 0.0 0.00 0.00 0.00 22 1017.7
20260831063156 68 268 0.0 0.0 0.00 0.00 0.00 23 1017.7
20260831062651 68 235 0.0 0.0 0.00 0.00 0.00 25 1017.7
20260831062146 68 219 0.0 0.0 0.00 0.00 0.00 25 1017.4
20260831061640 68 225 0.0 0.0 0.00 0.00 0.00 24 1017.7
20260831061135 68 244 0.0 0.0 0.00 0.00 0.00 23 1017.7
20260831060629 69 232 0.0 0.0 0.00 0.00 0.00 23 1017.7
20260831060123 69 226 0.0 0.0 0.00 0.00 0.00 23 1017.7
20260831055619 69 244 0.0 0.0 0.00 0.00 0.00 24 1017.4
20260831055114 69 233 0.0 0.0 0.00 0.00 0.00 23 1017.7
20260831055108 69 235 0.0 0.0 0.00 0.00 0.00 23 1017.7
20260831054101 69 235 0.0 0.0 0.00 0.00 0.00 23 1017.7
20260831053556 69 235 0.0 0.0 0.00 0.00 0.00 23 1017.7
20260831053051 69 238 0.0 0.0 0.00 0.00 0.00 24 1017.7
20260831053037 69 242 0.0 0.0 0.00 0.00 0.00 25 1017.7
20260831052656 69 237 0.0 0.0 0.00 0.00 0.00 25 1017.7
20260831052641 69 226 0.0 0.0 0.00 0.00 0.00 24 1017.7
20260831051028 69 236 0.0 0.0 0.00 0.00 0.00 24 1017.7
20260831050523 70 245 0.0 0.0 0.00 0.00 0.00 24 1017.7
20260831050018 70 242 0.0 0.0 0.00 0.00 0.00 25 1018.0
20260831050012 71 237 0.0 0.0 0.00 0.00 0.00 25 1018.0
20260831045006 71 231 0.0 0.0 0.00 0.00 0.00 22 1018.0
20260831044501 71 242 0.0 0.0 0.00 0.00 0.00 22 1018.0
20260831043955 71 206 0.0 0.0 0.00 0.00 0.00 21 1018.0
20260831043449 72 226 0.0 0.0 0.00 0.00 0.00 21 1018.0
20260831042944 72 228 0.0 0.0 0.00 0.00 0.00 21 1017.7
20260831042439 72 234 0.0 0.0 0.00 0.00 0.00 21 1017.7
20260831041933 72 220 0.0 0.0 0.00 0.00 0.00 20 1017.4
20260831041428 72 232 0.0 0.0 0.00 0.00 0.00 20 1017.7
20260831041423 73 276 0.0 0.0 0.00 0.00 0.00 20 1017.7
20260831040416 73 225 0.0 0.0 0.00 0.00 0.00 19 1017.7
20260831035911 73 290 0.0 0.0 0.00 0.00 0.00 19 1017.7
20260831035405 73 353 0.0 0.0 0.00 0.00 0.00 19 1017.7
20260831034859 73 233 0.0 0.0 0.00 0.00 0.00 19 1017.4
20260831034354 74 245 0.0 0.0 0.00 0.00 0.00 19 1017.7
20260831033849 74 317 0.0 0.0 0.00 0.00 0.00 18 1017.4
20260831033344 74 259 0.0 0.0 0.00 0.00 0.00 18 1017.4
20260831032838 75 228 0.0 0.9 0.00 0.00 0.00 17 1017.4
20260831032332 75 284 0.0 0.9 0.00 0.00 0.00 16 1017.4
20260831031827 76 27 0.0 0.9 0.00 0.00 0.00 16 1017.4
20260831031321 76 283 0.0 0.9 0.00 0.00 0.00 16 1017.4
20260831030816 76 217 0.0 0.0 0.00 0.00 0.00 15 1017.4
20260831030311 77 316 0.0 0.9 0.00 0.00 0.00 13 1017.0
20260831025805 77 225 0.0 0.9 0.00 0.00 0.00 12 1017.0
20260831025259 77 303 0.0 0.0 0.00 0.00 0.00 12 1017.4
20260831024754 78 350 0.0 0.0 0.00 0.00 0.00 12 1017.4
20260831024248 78 258 0.0 0.0 0.00 0.00 0.00 10 1017.0
20260831023742 78 295 0.0 0.0 0.00 0.00 0.00 10 1017.0
20260831023239 79 193 0.0 0.0 0.00 0.00 0.00 10 1017.0
20260831022732 79 313 0.0 0.0 0.00 0.00 0.00 10 1017.0
20260831022226 80 279 0.0 0.9 0.00 0.00 0.00 10 1017.0
20260831021720 81 275 0.0 0.9 0.00 0.00 0.00 10 1017.0
20260831021215 81 208 0.0 0.0 0.00 0.00 0.00 10 1017.0
20260831020710 82 277 0.0 0.0 0.00 0.00 0.00 10 1017.0
20260831020204 82 174 0.0 0.0 0.00 0.00 0.00 10 1016.7
20260831015659 83 144 0.0 0.0 0.00 0.00 0.00 10 1017.0
20260831015153 83 259 0.0 0.0 0.00 0.00 0.00 10 1017.0
20260831014647 83 249 0.0 0.0 0.00 0.00 0.00 12 1016.7
20260831014143 83 218 0.0 0.9 0.00 0.00 0.00 12 1016.7
20260831014138 83 249 0.0 0.9 0.00 0.00 0.00 12 1016.7
20260831013133 83 214 0.0 0.0 0.00 0.00 0.00 12 1016.7
20260831013128 83 236 0.0 0.0 0.00 0.00 0.00 12 1016.7
20260831012120 83 201 0.0 1.7 0.00 0.00 0.00 12 1016.7
20260831011614 83 253 0.0 1.7 0.00 0.00 0.00 12 1016.7
20260831011109 83 304 0.0 0.9 0.00 0.00 0.00 12 1016.7
20260831010603 83 288 0.0 0.9 0.00 0.00 0.00 12 1016.7
20260831010058 83 70 0.0 0.9 0.00 0.00 0.00 12 1016.7
20260831010053 83 278 0.0 0.0 0.00 0.00 0.00 12 1017.0
20260831005046 83 104 0.0 0.0 0.00 0.00 0.00 12 1016.7
20260831004543 84 287 0.0 2.6 0.00 0.00 0.00 12 1017.0
20260831004538 84 306 0.0 2.6 0.00 0.00 0.00 12 1017.0
20260831003530 84 326 0.0 0.9 0.00 0.00 0.00 12 1017.0
20260831003024 84 123 0.0 0.9 0.00 0.00 0.00 12 1017.0
20260831002519 84 41 0.0 0.9 0.00 0.00 0.00 12 1017.0
20260831002014 84 160 0.0 0.0 0.00 0.00 0.00 12 1017.0
20260831001508 84 28 0.0 0.9 0.00 0.00 0.00 11 1017.0
20260831001002 84 257 0.0 1.7 0.00 0.00 0.00 11 1017.4
20260831000457 84 59 0.0 0.9 0.00 0.00 0.00 12 1017.4
20260830235951 84 300 0.0 1.7 0.00 0.00 0.00 12 1017.4
20260830235445 84 228 0.0 1.7 0.00 0.00 0.00 12 1017.4
20260830234940 84 336 0.0 2.6 0.00 0.00 0.00 11 1017.4
20260830234435 84 323 0.0 2.6 0.00 0.00 0.00 12 1017.4
20260830233931 84 330 0.0 1.7 0.00 0.00 0.00 12 1017.4
20260830233925 84 54 0.0 1.7 0.00 0.00 0.00 12 1017.4
20260830232918 85 160 0.0 1.7 0.00 0.00 0.00 11 1017.7
20260830232412 85 279 0.0 0.0 0.00 0.00 0.00 11 1017.4
20260830231907 85 218 0.0 0.0 0.00 0.00 0.00 11 1017.7
20260830231402 85 78 0.0 0.9 0.00 0.00 0.00 11 1017.4
20260830230856 86 324 0.0 0.9 0.00 0.00 0.00 11 1017.4
20260830230350 86 261 0.0 0.9 0.00 0.00 0.00 12 1017.7
20260830225845 86 201 0.0 1.7 0.00 0.00 0.00 11 1017.7
20260830225836 87 335 0.0 2.6 0.00 0.00 0.00 11 1017.7
20260830225440 87 342 0.0 2.6 0.00 0.00 0.00 11 1017.7
20260830224331 87 7 0.0 0.9 0.00 0.00 0.00 10 1017.7
20260830224324 87 100 0.0 0.9 0.00 0.00 0.00 10 1018.0
20260830223318 87 197 0.0 0.9 0.00 0.00 0.00 10 1018.0
20260830223313 87 325 0.0 0.9 0.00 0.00 0.00 10 1018.0
20260830222307 86 77 0.0 0.9 0.00 0.00 0.00 10 1018.0
20260830221801 86 87 0.0 1.7 0.00 0.00 0.00 10 1018.0
20260830221256 86 287 0.0 1.7 0.00 0.00 0.00 10 1018.0
20260830220749 86 104 0.0 2.6 0.00 0.00 0.00 10 1018.4
20260830220244 86 21 0.0 2.6 0.00 0.00 0.00 10 1018.4
20260830215739 85 325 0.0 1.7 0.00 0.00 0.00 10 1018.4
20260830215235 86 308 0.0 1.7 0.00 0.00 0.00 10 1018.4
20260830214729 85 141 0.0 1.7 0.00 0.00 0.00 11 1018.7
20260830214222 85 287 0.0 1.7 0.00 0.00 0.00 11 1018.7
20260830213718 85 122 0.0 0.9 0.00 0.00 0.00 11 1018.7
20260830213712 85 16 0.0 2.6 0.00 0.00 0.00 10 1018.7
20260830212706 85 48 0.0 2.6 0.00 0.00 0.00 10 1019.1
20260830212202 85 284 0.0 0.9 0.00 0.00 0.00 10 1018.7
20260830212157 85 139 0.0 1.7 0.00 0.00 0.00 11 1018.7
20260830211149 85 39 0.0 0.9 0.00 0.00 0.00 11 1019.1
20260830210643 85 142 0.0 1.7 0.00 0.00 0.00 11 1019.1
20260830210138 85 186 0.0 1.7 0.00 0.00 0.00 11 1018.7
20260830205633 85 121 0.0 0.9 0.00 0.00 0.00 12 1019.4
20260830205128 85 356 0.0 0.0 0.00 0.00 0.00 11 1019.1
20260830204621 85 37 0.0 0.0 0.00 0.00 0.00 11 1019.1
20260830204116 85 59 0.0 0.9 0.00 0.00 0.00 10 1019.1
20260830203611 85 10 0.0 0.9 0.00 0.00 0.00 12 1019.1
20260830203105 85 51 0.0 0.9 0.00 0.00 0.00 12 1019.1
20260830202600 85 8 0.0 0.9 0.00 0.00 0.00 11 1019.4
20260830202555 85 312 0.0 1.7 0.00 0.00 0.00 11 1019.4
20260830201549 84 325 0.0 1.7 0.00 0.00 0.00 11 1019.4
20260830201043 84 56 0.0 0.0 0.00 0.00 0.00 11 1019.4
20260830200537 84 223 0.0 0.9 0.00 0.00 0.00 10 1019.4
20260830200032 83 132 0.0 0.9 0.00 0.00 0.00 12 1019.7
20260830195526 83 210 0.0 0.0 0.00 0.00 0.00 12 1019.7
20260830195022 83 357 0.0 0.0 0.00 0.00 0.00 12 1019.4
20260830194517 83 237 0.0 0.9 0.00 0.00 0.00 12 1019.7
20260830194512 82 226 0.0 0.9 0.00 0.00 0.00 11 1020.1
20260830193504 82 150 0.0 0.9 0.00 0.00 0.00 12 1019.7
20260830192959 82 1 0.0 0.9 0.00 0.00 0.00 12 1019.7
20260830192951 82 151 0.0 0.9 0.00 0.00 0.00 12 1020.1
20260830192555 82 65 0.0 0.0 0.00 0.00 0.00 10 1019.7
20260830191443 82 15 0.0 1.7 0.00 0.00 0.00 12 1020.1
20260830190937 82 346 0.0 1.7 0.00 0.00 0.00 12 1019.7
20260830190431 81 309 0.0 0.0 0.00 0.00 0.00 12 1020.1
20260830185927 81 120 0.0 0.0 0.00 0.00 0.00 12 1020.1
20260830185921 81 201 0.0 0.0 0.00 0.00 0.00 10 1020.1
20260830184914 80 133 0.0 0.0 0.00 0.00 0.00 10 1020.1
20260830184409 80 185 0.0 0.0 0.00 0.00 0.00 10 1020.4
20260830183903 80 311 0.0 0.0 0.00 0.00 0.00 10 1020.4
20260830183358 79 266 0.0 0.0 0.00 0.00 0.00 10 1020.7
20260830182853 78 183 0.0 0.0 0.00 0.00 0.00 10 1020.4
20260830182348 78 234 0.0 0.0 0.00 0.00 0.00 11 1020.4
20260830181841 78 193 0.0 0.0 0.00 0.00 0.00 11 1020.1
20260830181336 78 286 0.0 0.0 0.00 0.00 0.00 12 1020.4
20260830180830 77 168 0.0 0.0 0.00 0.00 0.00 12 1020.4
20260830180325 77 224 0.0 0.0 0.00 0.00 0.00 12 1020.4
20260830175819 77 84 0.0 0.0 0.00 0.00 0.00 12 1020.4
20260830175313 77 353 0.0 0.0 0.00 0.00 0.00 13 1020.4
20260830175306 77 150 0.0 0.9 0.00 0.00 0.00 17 1020.1
20260830174909 77 168 0.0 0.0 0.00 0.00 0.00 16 1020.4
20260830173757 77 131 0.0 0.9 0.00 0.00 0.00 16 1020.7
20260830173251 76 210 0.0 0.0 0.00 0.00 0.00 15 1020.4
20260830172745 76 231 0.0 0.0 0.00 0.00 0.00 14 1020.4
20260830172240 76 137 0.0 0.0 0.00 0.00 0.00 15 1020.4
20260830171735 76 144 0.0 0.0 0.00 0.00 0.00 15 1020.4
20260830171231 76 108 0.0 0.0 0.00 0.00 0.00 13 1020.4
20260830170723 76 199 0.0 0.0 0.00 0.00 0.00 13 1020.4
20260830170218 76 202 0.0 0.0 0.00 0.00 0.00 14 1020.4
20260830165713 76 136 0.0 0.0 0.00 0.00 0.00 13 1020.4
20260830165208 76 328 0.0 0.0 0.00 0.00 0.00 12 1020.4
20260830165203 76 190 0.0 0.0 0.00 0.00 0.00 13 1020.4
20260830164156 75 56 0.0 0.0 0.00 0.00 0.00 13 1020.4
20260830163650 74 205 0.0 0.0 0.00 0.00 0.00 13 1020.4
20260830163146 74 96 0.0 0.0 0.00 0.00 0.00 14 1020.4
20260830163141 73 175 0.0 0.0 0.00 0.00 0.00 12 1020.4
20260830162134 73 195 0.0 0.0 0.00 0.00 0.00 15 1020.4
20260830161628 72 226 0.0 0.0 0.00 0.00 0.00 17 1020.4
20260830161123 72 182 0.0 0.0 0.00 0.00 0.00 19 1020.7
20260830160618 71 220 0.0 0.0 0.00 0.00 0.00 20 1020.4
20260830160112 71 195 0.0 0.0 0.00 0.00 0.00 19 1020.7
20260830155607 71 119 0.0 0.0 0.00 0.00 0.00 19 1020.4
20260830155100 70 152 0.0 0.0 0.00 0.00 0.00 20 1020.4
20260830154555 70 80 0.0 0.0 0.00 0.00 0.00 23 1020.4
20260830154050 69 267 0.0 0.0 0.00 0.00 0.00 19 1020.4
20260830153544 69 287 0.0 0.0 0.00 0.00 0.00 21 1020.4
20260830153040 68 227 0.0 0.0 0.00 0.00 0.00 21 1020.4